• MPC Preparation (Info)

  • MPEC 2015-H113: 2015 HV11

    The following Minor Planet Electronic Circular may be linked-to from your own Web pages, but must not otherwise be redistributed electronically.

    A form allowing access to any MPEC is at the bottom of this page.


    Read MPEC 2015-H112 Read MPEC 2015-H114


    M.P.E.C. 2015-H113                               Issued 2015 Apr. 24, 14:09 UT
    
         The Minor Planet Electronic Circulars contain information on unusual
             minor planets and routine data on comets.  They are published
       on behalf of Commission 20 of the International Astronomical Union by the
              Minor Planet Center, Smithsonian Astrophysical Observatory,
                              Cambridge, MA 02138, U.S.A.
    
                 Prepared using the Tamkin Foundation Computer Network
    
                                  MPC@CFA.HARVARD.EDU
                URL https://www.minorplanetcenter.net/    ISSN 1523-6714
    
                                       2015 HV11
    
    Observations:
         K15H11V* C2015 04 22.39518 13 51 49.99 +25 40 07.7          20.8 VqEH113G96
         K15H11V  C2015 04 22.40129 13 51 50.90 +25 39 55.3          21.1 VqEH113G96
         K15H11V  C2015 04 22.40740 13 51 51.82 +25 39 43.7          21.7 VqEH113G96
         K15H11V  C2015 04 22.41350 13 51 52.78 +25 39 31.5          20.8 VqEH113G96
         K15H11V KC2015 04 22.43313 13 51 55.90 +25 38 54.2          20.8 RoEH113291
         K15H11V KC2015 04 22.43463 13 51 56.10 +25 38 50.8          20.4 RoEH113291
         K15H11V KC2015 04 22.43614 13 51 56.35 +25 38 48.2          20.4 RoEH113291
         K15H11V  C2015 04 22.44211 13 51 57.27 +25 38 34.4          21.7 VqEH113I52
         K15H11V  C2015 04 22.44322 13 51 57.45 +25 38 32.6          21.6 VqEH113I52
         K15H11V  C2015 04 22.44433 13 51 57.60 +25 38 31.1          22.0 VqEH113I52
         K15H11V  C2015 04 22.85219 13 53 17.54 +25 25 18.8          20.0 V EH113033
         K15H11V  C2015 04 22.85506 13 53 18.01 +25 25 13.4          20.7 V EH113033
         K15H11V  C2015 04 22.85794 13 53 18.50 +25 25 08.3          20.0 V EH113033
         K15H11V  C2015 04 22.86081 13 53 18.96 +25 25 02.8          20.4 V EH113033
         K15H11V  C2015 04 22.86656 13 53 19.90 +25 24 51.9          19.9 V EH113033
         K15H11V  C2015 04 22.87232 13 53 20.85 +25 24 41.3          20.1 V EH113033
         K15H11V  C2015 04 22.87520 13 53 21.30 +25 24 36.1          20.0 V EH113033
         K15H11V  C2015 04 22.87807 13 53 21.79 +25 24 30.4          20.5 V EH113033
         K15H11V  C2015 04 22.91160 13 53 27.24 +25 23 27.0          20.2 V EH113033
         K15H11V  C2015 04 22.91389 13 53 27.62 +25 23 22.5          19.6 V EH113033
         K15H11V  C2015 04 22.91619 13 53 27.97 +25 23 18.3          20.0 V EH113033
         K15H11V  C2015 04 22.91848 13 53 28.35 +25 23 13.8          20.3 V EH113033
         K15H11V  C2015 04 22.92079 13 53 28.71 +25 23 09.6          19.8 V EH113033
         K15H11V  C2015 04 22.92308 13 53 29.10 +25 23 04.7          20.6 V EH113033
         K15H11V  C2015 04 22.92538 13 53 29.47 +25 23 00.7          20.3 V EH113033
         K15H11V  C2015 04 22.92767 13 53 29.83 +25 22 56.2          20.6 V EH113033
         K15H11V KC2015 04 22.97159 13 53 37.61 +25 21 29.4                qEH113J95
         K15H11V  C2015 04 22.98758 13 53 39.49 +25 20 58.8          20.4 V EH113033
         K15H11V  C2015 04 22.98989 13 53 39.82 +25 20 54.5          20.2 V EH113033
         K15H11V KC2015 04 22.99095 13 53 40.79 +25 20 52.7                qEH113J95
         K15H11V  C2015 04 22.99218 13 53 40.20 +25 20 49.9          20.3 V EH113033
         K15H11V  C2015 04 22.99448 13 53 40.57 +25 20 45.2          20.3 V EH113033
         K15H11V  C2015 04 22.99677 13 53 40.93 +25 20 40.7          20.2 V EH113033
         K15H11V  C2015 04 22.99907 13 53 41.32 +25 20 36.2          20.4 V EH113033
         K15H11V  C2015 04 23.00137 13 53 41.70 +25 20 31.6          20.4 V EH113033
         K15H11V KC2015 04 23.01200 13 53 44.22 +25 20 10.6          20.7 RqEH113J95
         K15H11V  C2015 04 23.05947 13 53 51.21 +25 18 33.5          20.5 V EH113033
         K15H11V  C2015 04 23.06176 13 53 51.60 +25 18 28.4          20.8 V EH113033
         K15H11V  C2015 04 23.06406 13 53 51.95 +25 18 23.9          20.0 V EH113033
         K15H11V  C2015 04 23.06635 13 53 52.35 +25 18 19.1          20.3 V EH113033
         K15H11V  C2015 04 23.06866 13 53 52.73 +25 18 14.3          20.9 V EH113033
         K15H11V  C2015 04 23.07095 13 53 53.10 +25 18 10.0          20.5 V EH113033
         K15H11V  C2015 04 23.19501 13 54 21.49 +25 14 25.2                qEH113I52
         K15H11V  C2015 04 23.19647 13 54 21.80 +25 14 22.0          20.7 VqEH113I52
         K15H11V  C2015 04 23.19793 13 54 22.08 +25 14 19.5          21.2 VqEH113I52
         K15H11V  C2015 04 23.20157 13 54 22.70 +25 14 12.7          21.6 VqEH113I52
         K15H11V  C2015 04 23.20302 13 54 22.90 +25 14 09.3          21.1 VqEH113I52
         K15H11V  C2015 04 23.20594 13 54 23.30 +25 14 03.6          20.2 VqEH113I52
         K15H11V  C2015 04 23.21369 13 54 24.68 +25 13 49.8          20.8 RoEH113926
         K15H11V  C2015 04 23.22425 13 54 26.31 +25 13 30.3          20.9 RoEH113926
         K15H11V  C2015 04 23.23438 13 54 27.93 +25 13 10.7          21.0 RoEH113926
         K15H11V  C2015 04 24.18400 13 57 31.36 +24 39 25.2          21.1 VqEH113I52
         K15H11V  C2015 04 24.18511 13 57 31.56 +24 39 24.3          21.1 VqEH113I52
         K15H11V  C2015 04 24.18622 13 57 31.72 +24 39 21.2                qEH113I52
         K15H11V  C2015 04 24.18733 13 57 31.93 +24 39 19.0          20.8 VqEH113I52
    
    Observer details:
    033 Karl Schwarzschild Observatory, Tautenburg.  Observers B. Stecklum,
        C. Hoegner.  Measurer B. Stecklum.  1.34-m f/4 Schmidt + CCD.
    291 LPL/Spacewatch II.  Observer R. A. Mastaler.  1.8-m f/2.7 reflector + CCD.
    926 Tenagra II Observatory.  Observers M. Schwartz, P. R. Holvorcem.  Measurer
        M. Schwartz.  0.81-m f/7 Ritchey-Chretien + CCD.
    G96 Mt. Lemmon Survey.  Observer R. G. Matheny.  Measurers E. J. Christensen,
        D. C. Fuls, A. R. Gibbs, A. D. Grauer, R. E. Hill, J. A. Johnson,
        R. A. Kowalski, S. M. Larson, R. G. Matheny, F. C. Shelly.  1.5-m
        reflector + CCD.
    I52 Steward Observatory, Mt. Lemmon Station.  Observers A. R. Gibbs,
        R. E. Hill.  Measurers E. J. Christensen, D. C. Fuls, A. R. Gibbs,
        A. D. Grauer, R. E. Hill, J. A. Johnson, R. A. Kowalski, S. M. Larson,
        R. G. Matheny, F. C. Shelly.  1.0-m reflector + CCD.
    J95 Great Shefford.  Observer P. Birtwhistle.  0.40-m f/6.0 Schmidt-Cassegrain
        + CCD.
    
    Orbital elements:
    2015 HV11                                                Earth MOID = 0.0589 AU
    Epoch 2015 June 27.0 TT = JDT 2457200.5                 MPC
    M  16.14836              (2000.0)            P               Q
    n   0.36992474     Peri.  174.72148     -0.59737019     +0.79512630
    a   1.9218838      Node    58.55449     -0.74019940     -0.49650605
    e   0.4434140      Incl.    7.03668     -0.30863198     -0.34821819
    P   2.66           H   23.8           G   0.15           U   7
    Residuals in seconds of arc
    150422 G96  0.3+  0.2+    150422 033  0.5+  0.2-    150423 033  0.1+  0.0
    150422 G96  0.0   0.3-    150422 033  0.2+  0.0     150423 033  0.4+  0.1-
    150422 G96  0.3-  0.0     150422 033  0.4+  0.1-    150423 033  0.3+  0.1-
    150422 G96  0.0   0.3-    150422 033  0.2+  0.1+    150423 033  0.1+  0.3+
    150422 291  0.3+  0.3+    150422 033  0.5+  0.4-    150423 I52  1.1-  0.3+
    150422 291  0.2-  0.2-    150422 033  0.5+  0.0     150423 I52  0.1-  0.1-
    150422 291  0.1-  0.2+    150422 033  0.4+  0.1-    150423 I52  0.5+  0.2+
    150422 I52  0.1-  0.8-    150422 J95  1.3-  0.4-    150423 I52  0.9+  0.3+
    150422 I52  0.0   0.4-    150422 033  0.7+  0.2-    150423 I52  0.4+  0.3-
    150422 I52  0.4-  0.3+    150422 033  0.1+  0.1+    150423 I52  0.5-  0.4-
    150422 033  0.2+  0.0     150422 J95  0.5-  0.7+    150423 926  0.9+  0.7-
    150422 033  0.2+  0.1-    150422 033  0.2+  0.1+    150423 926  0.2+  0.1+
    150422 033  0.4+  0.1+    150422 033  0.2+  0.0     150423 926  0.4+  0.2+
    150422 033  0.2+  0.0     150422 033  0.1+  0.0     150424 I52  0.0   0.8-
    150422 033  0.2+  0.2-    150422 033  0.3+  0.1+    150424 I52  0.1+  0.6+
    150422 033  0.3+  0.1-    150423 033  0.4+  0.1+    150424 I52  0.3-  0.1-
    150422 033  0.0   0.1+    150423 J95  0.1-  0.1+    150424 I52  0.1-  0.0
    150422 033  0.3+  0.2-    150423 033  0.4+  0.1+
    150422 033  0.4+  0.1-    150423 033  0.6+  0.2-
    
    Ephemeris:
    2015 HV11                a,e,i = 1.92, 0.44, 7                   q = 1.0697
    Date    TT    R. A. (2000) Decl.     Delta      r     Elong.  Phase     V
    2015 03 25    13 05 12.4 +27 26 52   0.2309  1.2001   148.5    25.7    22.2
    ...
    2015 04 09    13 23 08.1 +28 47 44   0.1635  1.1373   143.7    31.4    21.5
    ...
    2015 04 17    13 37 57.5 +27 42 49   0.1323  1.1110   142.1    33.7    21.0
    ...
    2015 04 23    13 53 42.2 +25 21 10   0.1108  1.0951   142.3    34.1    20.6
    2015 04 24    13 56 51.7 +24 46 33   0.1075  1.0928   142.6    34.0    20.6
    2015 04 25    14 00 12.1 +24 08 06   0.1041  1.0906   142.9    33.8    20.5
    ...
    2015 05 01    14 24 37.3 +18 38 22   0.08555 1.0797   146.5    31.0    20.0
    ...
    2015 05 09    15 11 52.4 +05 05 31   0.06664 1.0713   157.6    21.0    19.1
    ...
    2015 05 24    17 24 10.8 -33 06 00   0.06714 1.0750   157.7    20.9    19.1
    
    A. U. Tomatic                (C) Copyright 2015 MPC           M.P.E.C. 2015-H113
    

    Read MPEC 2015-H112 Read MPEC 2015-H114


    MPEC number:

    Enter an MPEC number in one of the following forms:

    • 1997-B01 (the full form)
    • J97B01 (the packed version of the full form)
    • B01 (the abbreviated form)